Location: Moscow
(55.7500°N, 37.5830°E)
Time: 16:43:13
(UTC+03:00)

Transit 2A - Pass Details

Date: 01 December 2021
Orbit: 591 x 967 km, 66.7° (Epoch: 21 January)

Event Time Altitude Azimuth Distance (km) Brightness Sun altitude
Rises 01:41:03 0° 206° (SSW) 3,337 - -52.7°
Reaches altitude 10° 01:43:25 10° 203° (SSW) 2,462 - -52.6°
Maximum altitude 01:49:04 61° 124° (SE) 1,024 - -52.1°
Drops below altitude 10° 01:55:13 10° 47° (NE) 2,674 - -51.6°
Exits shadow 01:55:38 - 46° (NE) 2,829 9.4 -51.6°
Sets 01:57:52 0° 44° (NE) 3,647 10.1 -51.4°
